{"data":{"norad_id":51875,"epoch":"2026-09-19T07:33:10.101600Z","epoch_age_seconds":154270,"freshness":"FRESH","line1":"1 51875U 22022Z   26262.31470025 -.00000025  00000+0  10203-4 0  9991","line2":"2 51875  53.1603 209.0648 0001231  96.4643 263.6501 15.35398017252491","mean_motion":15.35398017,"eccentricity":0.0001231,"inclination_deg":53.1603,"raan_deg":209.0648,"arg_perigee_deg":96.4643,"mean_anomaly_deg":263.6501,"bstar":1.0203e-5,"rev_number":25249,"period_min":93.786756531938,"perigee_km":458.89678776716,"apogee_km":460.58027272271,"semimajor_km":6837.8755302449,"source":"CELESTRAK","updated_at":"2026-09-20T09:00:39.949296Z"}}